Temp
21 21 21 20 20 20 20 20 19 19 19 19 18 18 18 18 19 18 18 17 17 17 17 16 16 16 16 16 16 16 16 16 16 16 16 16 16 16 16 16 15 15 15
20 21 21 20 20 20 20 20 19 19 18 18 18 18 18 18 18 18 18 17 17 17 17 16 16 16 16 15 16 16 16 16 16 16 15 16 16 15 15 15 14 15 14
20 21 20 20 19 20 20 19 18 18 18 18 18 18 18 18 18 18 18 18 17 16 16 16 16 15 15 16 17 16 16 16 17 17 16 15 15 15 15 14 14 14 14
20 20 19 20 19 19 19 19 18 18 18 18 18 18 18 18 18 18 18 17 17 16 16 16 15 15 15 17 17 17 16 17 17 17 16 16 15 15 14 14 14 14 14
21 20 20 20 19 19 19 19 18 18 18 18 18 18 17 17 17 17 17 16 16 16 16 15 15 14 16 17 17 17 17 17 17 17 16 15 15 14 14 14 14 14 14
21 19 19 19 19 19 19 19 18 18 18 18 17 17 17 17 17 17 17 16 17 16 15 14 14 15 16 17 17 17 18 18 17 17 16 14 14 14 13 13 13 13 13
20 19 19 19 19 19 18 18 18 18 18 18 17 17 17 17 17 16 16 17 16 16 14 14 13 15 16 16 17 17 19 19 18 16 15 15 14 14 13 13 13 13 13
19 18 18 18 18 18 18 18 18 18 18 17 17 17 17 17 17 16 16 16 16 15 14 14 13 15 16 16 17 18 18 18 18 16 15 14 13 13 13 13 12 13 12
19 18 18 18 18 18 18 18 17 17 17 17 17 17 17 17 17 16 16 16 15 14 14 14 13 14 15 17 17 18 18 18 18 17 15 13 13 13 13 13 13 13 12
19 18 18 18 18 18 17 17 17 17 17 17 17 17 17 16 17 16 16 15 15 14 13 13 13 14 16 17 17 18 19 19 17 16 14 14 14 13 12 13 12 12 12
19 18 18 18 18 17 17 17 17 17 17 17 17 16 16 16 16 16 15 15 15 14 13 13 13 15 15 17 18 18 19 17 17 15 14 13 13 13 13 12 12 12 12
19 19 18 19 18 18 17 17 16 16 17 16 16 17 17 16 16 16 15 15 14 14 13 13 14 15 15 17 18 19 19 17 17 15 13 13 13 13 13 12 12 12 11
20 19 19 19 19 18 18 17 17 16 17 17 17 17 18 17 16 16 15 14 14 14 13 14 14 15 16 17 17 18 19 18 16 14 13 13 13 13 13 12 12 11 11
20 20 20 19 19 19 19 17 17 17 17 17 18 18 18 18 16 16 15 15 15 14 15 14 15 16 16 18 18 18 18 19 17 15 13 13 13 13 12 12 12 11 11
19 20 20 20 19 19 19 18 18 17 17 17 18 18 19 18 17 17 16 16 16 16 16 16 16 17 17 17 17 17 18 18 17 15 14 13 13 12 12 12 12 11 11
13 15 17 19 19 19 19 19 18 17 18 18 18 19 19 19 18 19 17 17 18 17 18 17 17 17 17 17 16 17 17 17 17 16 14 13 12 12 12 12 12 12 11
9 11 16 16 18 19 19 19 18 17 17 18 18 18 18 18 19 19 19 18 18 18 18 18 17 17 17 17 16 16 16 17 17 16 15 14 13 12 12 12 12 12 11
8 9 13 14 16 18 19 19 18 18 17 17 18 18 18 18 18 18 18 18 18 19 19 18 18 18 18 17 17 16 16 16 17 16 16 15 15 14 13 13 12 12 11
9 8 11 13 14 15 16 18 18 18 17 18 18 17 17 17 17 17 18 18 18 18 18 18 18 18 18 18 18 17 17 17 17 16 16 17 15 14 15 14 14 13 12
10 9 10 10 12 15 15 17 16 18 18 17 18 17 17 17 17 17 18 18 18 18 18 18 18 18 18 18 18 18 17 17 17 17 17 17 16 16 15 14 14 13 13
12 11 9 9 11 12 14 14 16 16 17 17 17 17 17 17 17 17 17 18 18 18 18 18 18 18 18 19 18 18 17 17 17 17 17 17 16 16 16 15 15 14 15
13 11 10 9 8 9 9 11 14 16 16 17 17 17 17 17 17 17 17 18 17 17 18 18 17 17 18 18 18 18 15 16 16 16 16 16 16 16 16 16 15 15 15
13 12 11 10 9 8 9 11 13 16 15 16 16 17 17 17 16 17 17 17 17 17 17 17 17 17 17 17 17 17 15 15 17 16 16 16 16 16 16 16 16 16 15
12 12 11 10 9 8 8 9 9 10 15 17 15 16 16 16 17 17 17 17 17 17 17 17 17 17 17 17 17 17 16 16 15 15 16 16 16 16 16 16 16 16 16
12 11 11 10 10 9 8 7 7 9 13 15 16 16 16 16 16 16 17 16 17 17 17 17 16 16 16 16 16 16 16 16 16 15 14 17 16 16 16 16 16 16 16
11 10 10 10 10 9 8 6 6 7 10 13 16 15 15 16 17 17 16 16 16 16 16 17 16 16 16 16 16 16 16 16 16 16 14 16 17 17 18 17 16 16 16
Height
795 798 806 810 814 818 822 824 827 829 830 832 833 835 838 839 839 838 840 842 844 845 846 848 851 849 850 852 854 854 855 855 857 858 859 860 861 861 862 863 863 864 865
794 799 807 811 816 819 823 827 829 832 833 835 836 838 842 843 843 843 843 845 848 848 850 849 854 853 853 855 857 859 859 859 860 861 862 863 864 865 866 867 868 868 868
789 801 808 812 817 821 824 830 833 835 836 837 839 840 844 846 847 847 847 848 850 851 854 853 856 858 857 857 860 863 863 863 863 865 866 866 867 869 870 871 872 872 872
794 799 809 812 818 823 827 831 835 836 840 840 843 843 845 848 849 850 850 850 853 854 857 858 859 862 862 861 862 864 866 868 869 870 869 871 871 872 873 874 875 875 876
801 802 808 814 819 824 828 833 836 839 841 843 846 845 848 850 850 853 853 853 856 857 860 862 862 863 866 865 865 866 868 871 872 871 873 874 874 875 876 876 877 878 879
801 806 808 816 820 826 829 833 836 841 843 845 848 848 850 852 854 855 856 857 859 861 863 864 865 864 867 868 868 869 870 872 874 875 878 878 878 879 879 879 880 881 882
801 807 811 818 820 825 831 834 837 840 843 846 849 850 852 853 856 858 859 860 861 864 865 867 867 867 868 870 871 870 871 872 875 877 881 882 882 882 882 883 883 884 885
802 809 813 820 823 826 829 835 838 841 844 847 850 852 853 854 857 860 862 862 863 866 868 869 869 870 870 871 872 873 874 875 878 879 882 885 886 885 885 885 887 888 888
804 811 815 823 825 827 832 837 840 843 845 848 851 854 854 856 859 861 865 864 865 869 869 871 871 871 872 873 874 876 876 877 879 880 884 887 888 889 889 888 889 890 891
805 811 817 824 826 827 833 838 841 844 846 849 851 855 857 859 860 863 866 867 868 871 871 873 873 874 874 874 875 876 876 879 881 882 885 889 890 891 892 893 892 892 893
808 813 819 823 827 829 832 838 842 844 846 849 853 855 858 861 862 864 865 868 870 872 873 873 875 876 877 876 878 879 878 881 881 884 887 891 892 893 894 894 895 895 896
809 813 817 821 825 828 832 837 841 843 845 849 853 855 858 861 862 865 866 869 870 873 875 875 876 879 880 879 879 881 881 881 881 884 889 892 894 895 895 896 897 897 897
811 815 818 821 824 827 830 834 839 842 844 848 851 854 858 860 861 864 867 870 872 874 876 876 877 879 880 881 880 882 883 884 882 886 890 893 894 896 896 897 898 898 899
811 816 820 822 824 827 829 834 835 839 842 846 849 852 856 858 860 863 866 868 872 874 876 877 877 877 881 883 883 883 884 885 883 885 890 893 895 896 897 898 898 898 899
815 818 820 822 824 825 828 831 833 836 840 843 847 850 853 856 858 861 865 866 869 872 874 875 878 879 881 883 883 884 884 885 884 885 889 893 895 896 896 898 899 898 898
816 817 819 823 822 824 825 828 831 834 838 842 846 849 852 855 856 859 863 865 868 870 873 875 876 879 882 883 884 884 885 886 887 886 887 891 893 896 896 897 898 899 899
819 817 817 819 822 822 824 824 828 835 837 840 843 846 849 852 856 858 860 863 866 868 871 875 877 879 881 883 883 884 885 886 887 888 887 888 891 892 895 895 896 897 898
823 819 815 819 817 819 824 824 825 830 835 840 841 844 847 851 854 857 860 862 865 867 870 872 876 878 879 882 882 884 885 886 887 888 888 887 887 889 891 891 893 894 895
824 823 820 816 817 819 821 817 822 823 828 835 840 842 844 848 853 857 859 861 863 865 868 870 873 876 877 879 880 882 884 884 885 887 888 889 888 887 888 889 890 891 892
823 824 818 820 817 818 817 811 814 823 829 836 839 838 841 845 849 853 857 859 861 864 866 869 870 874 874 876 878 879 882 883 883 884 885 886 887 888 887 886 887 888 888
821 821 822 820 815 814 815 816 805 803 822 834 838 836 838 843 848 851 854 857 858 862 864 865 868 871 872 873 876 878 880 881 881 880 881 882 883 884 884 884 884 884 884
825 823 824 822 821 820 821 819 819 820 818 829 834 836 835 837 843 848 851 855 856 860 862 863 865 868 869 870 872 875 878 878 876 876 877 877 878 880 880 880 880 880 882
827 826 824 822 822 820 820 819 820 821 819 824 823 830 836 836 838 843 846 851 855 857 859 862 863 865 867 868 870 872 874 873 870 871 872 872 874 875 876 877 875 875 876
830 828 827 827 823 821 819 818 819 820 819 814 822 828 832 834 834 837 841 846 851 852 856 859 861 863 865 865 867 869 869 872 870 869 868 869 870 871 870 871 872 871 871
832 831 829 827 827 822 819 819 816 815 814 813 818 824 826 828 827 832 836 841 845 848 850 853 856 859 861 863 863 865 866 868 869 869 869 867 867 866 866 865 865 866 867
834 832 831 828 826 826 823 817 816 814 812 812 813 819 823 821 819 822 831 837 841 844 848 849 850 853 856 858 860 861 861 863 865 866 866 864 862 862 860 859 860 861 860
Wind_Speed
24 29 22 22 22 20 18 20 21 20 20 21 23 24 23 21 20 21 21 20 20 21 21 23 21 23 24 24 25 26 23 28 28 27 24 23 24 27 27 26 26 28 27
29 28 23 23 24 23 19 20 20 19 21 22 23 22 20 19 17 19 19 18 19 20 20 24 20 22 23 23 27 24 27 27 26 26 26 26 25 25 27 26 25 25 25
33 28 25 26 25 23 21 19 19 18 19 21 21 21 18 17 15 16 15 15 21 22 22 22 20 20 21 27 26 22 24 26 29 26 23 25 25 24 23 24 23 23 25
31 29 25 25 26 23 21 21 19 18 18 20 19 18 18 17 16 16 16 22 22 23 21 22 21 18 20 26 26 22 19 16 21 25 23 21 22 23 22 21 20 21 23
24 29 27 23 25 23 21 21 20 18 20 19 16 17 19 18 18 18 18 22 22 22 20 18 19 18 19 24 22 18 13 11 12 23 24 20 21 22 22 22 21 21 19
26 25 30 26 23 22 23 23 21 20 20 18 17 19 19 17 17 19 17 19 18 18 17 16 15 17 18 17 17 15 12 13 12 18 16 20 22 20 21 21 20 20 19
26 26 28 26 26 25 24 23 21 21 20 18 17 18 18 17 17 17 18 16 16 14 15 14 14 15 21 17 13 13 17 20 20 20 15 14 17 16 17 17 18 18 18
26 27 27 24 25 25 24 22 21 22 21 18 17 20 18 17 16 17 13 14 15 13 12 13 11 14 21 16 15 16 16 16 23 23 18 13 13 13 15 17 17 17 16
27 25 26 25 24 23 22 21 21 21 20 19 19 19 17 16 17 13 11 13 13 11 14 14 11 13 20 17 15 11 9 10 17 17 17 12 14 14 14 16 16 16 16
28 27 26 24 23 23 22 21 21 20 19 18 21 19 16 16 15 13 11 11 13 12 13 12 10 10 20 19 15 13 14 16 24 20 19 13 13 14 12 13 14 14 14
24 24 25 24 21 20 22 22 21 20 19 18 20 20 17 17 13 12 14 12 11 11 11 13 9 14 17 19 14 9 7 15 16 18 16 14 12 11 10 11 10 11 11
24 24 25 25 25 23 22 24 21 20 19 19 19 19 19 17 14 17 13 12 12 11 11 11 9 15 15 13 13 10 9 14 12 14 18 12 10 10 11 10 9 10 10
22 24 25 26 25 26 25 26 22 21 21 19 18 19 15 22 18 12 14 14 14 12 10 13 17 17 12 4 1 5 10 9 19 17 12 10 10 10 8 9 9 8 8
21 21 24 25 27 26 26 25 24 23 25 23 18 18 20 17 17 12 13 16 11 14 10 11 9 7 8 8 3 8 1 10 13 10 13 10 11 9 8 8 7 7 7
17 19 21 25 29 25 27 26 24 24 27 24 20 15 19 18 20 15 19 19 13 16 11 11 9 8 7 5 5 5 2 8 10 9 12 11 10 8 8 8 7 7 7
7 2 12 20 29 25 26 25 26 25 26 25 24 16 17 15 18 12 18 18 14 19 9 13 7 9 8 8 7 6 4 4 5 7 7 13 11 9 9 8 8 7 8
12 10 7 11 25 29 30 29 27 26 26 26 24 19 19 10 17 13 18 16 14 15 13 10 10 9 9 8 8 7 7 7 6 7 7 8 13 14 13 12 10 9 10
15 15 5 9 10 25 28 29 29 27 26 27 23 19 20 14 15 12 12 13 14 12 13 13 11 11 10 9 10 8 9 8 6 8 8 13 9 12 13 13 13 13 13
18 17 16 9 5 12 30 24 28 30 29 27 23 24 22 17 13 15 12 15 14 13 15 13 12 12 12 10 11 9 9 10 11 9 10 11 10 15 12 12 13 12 14
21 20 21 15 10 3 8 16 21 28 26 24 22 21 21 20 18 18 15 17 17 16 16 14 14 13 10 11 11 12 9 9 11 11 13 11 14 13 12 14 15 15 16
22 25 24 20 19 12 4 5 23 17 26 24 28 20 19 20 19 19 17 16 21 20 19 18 14 11 13 11 9 7 8 11 12 11 14 14 16 17 16 15 16 17 18
20 21 24 22 18 15 9 6 3 15 27 23 23 22 22 22 23 20 20 14 19 21 18 17 18 15 14 10 10 6 3 12 19 21 20 16 18 17 19 20 21 21 22
20 21 22 25 22 18 15 9 4 11 25 24 14 17 23 23 25 23 20 16 21 22 20 21 22 18 15 13 15 9 3 3 7 17 25 22 19 21 22 20 23 24 23
18 19 20 19 23 21 18 14 9 8 11 25 22 30 25 24 26 25 24 24 20 25 21 25 20 22 17 17 17 20 21 9 2 1 15 22 21 23 23 23 25 22 25
18 20 19 19 17 20 21 16 15 15 9 18 28 29 32 30 26 28 25 27 28 23 29 20 24 24 22 20 20 17 18 16 14 7 3 7 19 21 24 26 27 26 23
18 19 22 19 19 16 19 21 16 15 16 13 28 26 32 34 30 26 29 28 30 29 26 28 25 27 28 22 23 18 18 13 14 12 8 15 13 19 22 25 27 27 24
Wind_Direction
130 137 143 145 148 143 135 131 129 127 120 117 114 108 102 95 94 100 100 99 97 95 95 95 91 92 90 89 92 94 95 100 97 93 90 92 93 86 90 89 86 86 87
135 138 143 146 151 146 137 135 132 129 127 124 119 111 104 103 105 102 98 95 96 99 103 98 93 98 96 97 100 93 97 99 100 100 88 87 91 90 87 86 87 88 88
132 138 142 146 151 148 140 138 131 130 135 129 123 116 113 111 107 102 98 96 105 104 103 101 101 99 101 109 108 106 107 100 95 97 87 82 92 91 90 86 87 89 88
136 135 141 145 151 150 143 141 137 135 139 133 128 119 115 115 111 107 105 107 108 103 101 102 104 100 109 114 112 113 117 110 111 89 93 93 91 91 90 90 90 89 92
132 134 139 144 152 152 148 143 141 139 138 132 126 116 116 115 110 109 110 108 106 104 104 102 106 108 119 119 116 116 115 101 76 94 101 103 94 95 93 94 91 94 95
135 145 140 146 147 153 151 148 146 144 140 133 124 119 118 112 112 117 118 111 109 105 104 107 108 120 122 132 117 105 92 91 95 98 96 95 94 96 94 95 94 96 97
130 144 142 149 151 155 155 153 152 148 144 137 129 127 119 119 119 121 117 121 119 118 109 107 110 124 138 135 110 93 86 95 114 115 103 101 98 98 97 98 101 99 101
136 139 145 152 155 154 154 157 154 150 146 140 134 132 130 132 126 123 123 127 125 127 113 111 117 134 142 129 116 105 96 65 101 107 102 98 100 101 103 106 101 104 98
136 142 146 155 156 153 155 158 156 153 147 145 144 140 136 132 125 118 116 126 123 125 120 120 126 129 143 133 124 111 96 101 117 105 102 109 102 105 107 116 108 107 101
137 144 145 155 158 156 158 162 158 156 151 149 148 144 133 132 129 124 124 132 124 131 127 126 138 135 143 128 122 102 93 80 105 111 112 108 110 110 110 110 108 107 108
139 147 153 154 154 156 160 162 162 157 154 150 151 148 136 139 132 135 133 134 134 141 137 136 148 137 140 130 118 105 75 104 116 109 115 115 121 115 110 114 114 107 112
151 157 159 160 160 158 158 163 165 163 157 151 157 155 146 145 145 147 136 143 144 148 144 145 136 133 127 121 96 70 72 107 98 124 123 125 125 127 127 120 113 114 112
156 162 168 168 168 164 167 162 166 163 157 160 173 161 164 158 156 154 141 139 140 140 141 147 143 146 157 131 289 109 127 118 115 121 131 137 134 135 133 128 128 125 121
168 173 173 175 176 174 177 170 169 166 169 168 179 172 162 164 155 152 149 152 145 154 145 169 158 176 227 199 117 132 260 128 138 137 142 152 149 148 142 143 138 146 136
172 186 182 181 182 179 172 177 172 175 174 174 180 182 168 167 170 164 174 168 167 170 175 204 188 152 159 163 138 147 132 99 117 134 143 160 163 169 163 170 173 166 175
359 323 196 205 193 186 179 182 177 173 183 179 179 180 179 178 181 174 178 177 180 179 177 201 152 162 177 174 168 166 160 142 156 153 157 173 177 181 178 188 188 197 190
9 350 252 262 221 192 188 188 182 183 180 179 183 184 183 190 181 182 172 182 172 184 189 176 153 176 177 179 177 182 181 177 183 189 197 184 187 193 200 203 205 211 212
12 17 2 315 273 218 202 188 181 177 180 187 183 186 181 192 183 180 183 190 185 188 175 179 178 187 180 197 181 190 198 193 195 205 200 206 203 205 209 218 218 216 218
24 20 28 6 16 232 232 205 191 182 175 180 184 185 185 184 190 184 195 197 189 188 178 189 183 198 191 195 187 199 203 199 201 209 221 218 222 214 232 239 228 228 236
23 28 26 20 15 308 280 230 274 187 174 179 183 176 176 183 186 188 204 197 196 190 187 200 192 206 208 191 211 189 198 224 213 211 218 223 235 234 235 234 231 240 255
16 20 21 15 18 14 330 274 256 182 172 180 191 184 179 180 191 195 199 206 192 195 198 200 201 205 214 208 209 174 203 230 238 225 229 228 232 234 233 245 251 250 260
15 15 17 13 15 8 3 323 357 215 194 189 184 185 195 188 194 194 200 209 195 200 207 200 200 207 213 212 189 211 210 227 230 231 226 230 232 233 235 237 237 244 250
11 9 8 6 3 358 354 341 313 191 194 194 210 192 201 193 194 198 203 208 207 206 215 208 204 207 206 214 201 216 216 234 190 222 227 228 231 236 236 243 244 244 244
7 4 3 3 355 352 353 345 328 321 220 187 204 208 201 199 199 202 202 208 212 212 216 212 207 211 221 209 204 225 251 275 314 4 219 227 230 234 237 242 247 250 252
356 356 353 352 358 344 347 343 335 305 322 216 203 206 207 208 211 213 209 213 212 214 213 212 204 211 220 223 211 208 239 251 251 219 285 215 227 241 241 241 242 243 248
350 349 341 343 345 347 341 338 335 316 302 308 209 203 211 217 225 220 218 217 221 217 219 215 211 215 219 221 228 222 219 214 226 230 238 256 244 248 249 239 242 249 250